Weather History for Morrisville, VT

Change the Weather History Date:

Friday, July 26, 2013

  Actual Average Record
Temperature  
Mean Temperature 63 °F 68 °F  
Max Temperature 74 °F 80 °F 86 °F (2005)
Min Temperature 51 °F 56 °F 43 °F (2001)
Degree Days  
Heating Degree Days 2 1  
Month to date heating degree days 13 27  
Since 1 June heating degree days 143 150  
Since 1 July heating degree days 13 27  
Cooling Degree Days 0 4  
Month to date cooling degree days 171 97  
Year to date cooling degree days 267 153  
Since 1 June cooling degree days 247 145  
Growing Degree Days 12 (Base 50)    
Moisture  
Dew Point 55 °F    
Average Humidity 79    
Maximum Humidity 100    
Minimum Humidity 57    
Precipitation  
Precipitation 0.00 in 0.11 in 0.67 in (2008)
Month to date precipitation 4.89 3.52  
Year to date precipitation 25.52 19.12  
Sea Level Pressure  
Sea Level Pressure 30.09 in    
Wind  
Wind Speed 2 mph (NNW)    
Max Wind Speed 9 mph    
Max Gust Speed 15 mph    
Visibility 10 miles    
Events      
T = Trace of Precipitation, MM = Missing Value Source: NWS Daily Summary

Daily Weather History Graph

Daily Weather History Graph

Search for Another Location

Airport:

Trip Planner

Search our weather history database for the weather conditions in past years. The results will help you decide how hot, cold, wet, or windy it might be!

Date:

Astronomy

Jul. 26, 2013 Rise Set
Actual Time 5:30 AM EDT 8:22 PM EDT
Civil Twilight 4:56 AM EDT 8:56 PM EDT
Nautical Twilight 4:13 AM EDT 9:39 PM EDT
Astronomical Twilight 3:22 AM EDT 10:30 PM EDT
Moon 10:20 PM EDT (7/26) 10:17 AM EDT (7/26)
Length of Visible Light 15h 59m
Length of Day
14h 51m
Waning Gibbous, 80% of the Moon is Illuminated
Jul 26
Waning Gibbous
Jul 29
Last Quarter
Aug 6
New
Aug 14
First Quarter
Aug 20
Full

Hourly Weather History & Observations

Time (EDT) Temp. Dew Point Humidity Pressure Visibility Wind Dir Wind Speed Gust Speed Precip Events Conditions
12:54 AM 53.1 °F 51.1 °F 93% 30.15 in 10.0 mi Calm Calm - N/A   Clear
1:54 AM 52.0 °F 51.1 °F 97% 30.14 in 10.0 mi Calm Calm - N/A   Clear
2:54 AM 52.0 °F 51.1 °F 97% 30.13 in 10.0 mi Calm Calm - N/A   Clear
3:21 AM 51.8 °F 50.0 °F 94% 30.13 in 10.0 mi Calm Calm - N/A   Partly Cloudy
3:54 AM 52.0 °F 50.0 °F 93% 30.14 in 10.0 mi Calm Calm - N/A   Clear
4:54 AM 51.1 °F 50.0 °F 96% 30.13 in 10.0 mi Calm Calm - N/A   Clear
5:54 AM 52.0 °F 50.0 °F 93% 30.13 in 10.0 mi Calm Calm - N/A   Clear
6:54 AM 53.1 °F 51.1 °F 93% 30.14 in 10.0 mi Calm Calm - N/A   Clear
7:54 AM 55.0 °F 53.1 °F 93% 30.13 in 10.0 mi Calm Calm - N/A   Clear
8:54 AM 61.0 °F 55.0 °F 81% 30.12 in 10.0 mi Calm Calm - N/A   Clear
9:54 AM 64.0 °F 54.0 °F 70% 30.11 in 10.0 mi Calm Calm - N/A   Clear
10:54 AM 66.9 °F 55.9 °F 68% 30.10 in 10.0 mi North 4.6 mph - N/A   Clear
11:54 AM 71.1 °F 55.0 °F 57% 30.08 in 10.0 mi NNW 8.1 mph - N/A   Clear
12:54 PM 71.1 °F 55.0 °F 57% 30.07 in 10.0 mi North 8.1 mph - N/A   Clear
1:54 PM 73.0 °F 57.0 °F 57% 30.06 in 10.0 mi Variable 4.6 mph - N/A   Clear
2:54 PM 73.0 °F 57.0 °F 57% 30.05 in 10.0 mi Variable 6.9 mph - N/A   Partly Cloudy
3:54 PM 72.0 °F 57.9 °F 61% 30.05 in 10.0 mi NNW 8.1 mph - N/A   Clear
4:54 PM 71.1 °F 59.0 °F 66% 30.05 in 10.0 mi NNW 4.6 mph - N/A   Scattered Clouds
5:54 PM 71.1 °F 60.1 °F 68% 30.05 in 10.0 mi NW 5.8 mph - N/A   Clear
6:54 PM 69.1 °F 59.0 °F 70% 30.05 in 10.0 mi NNW 4.6 mph - N/A   Partly Cloudy
7:54 PM 68.0 °F 59.0 °F 73% 30.04 in 10.0 mi Calm Calm - N/A   Clear
8:54 PM 63.0 °F 59.0 °F 87% 30.04 in 10.0 mi Calm Calm - N/A   Clear
9:54 PM 60.1 °F 57.0 °F 90% 30.05 in 10.0 mi Calm Calm - N/A   Clear
10:54 PM 59.0 °F 57.0 °F 93% 30.06 in 10.0 mi SSW 3.5 mph - N/A   Mostly Cloudy
11:54 PM 59.0 °F 57.0 °F 93% 30.06 in 10.0 mi Calm Calm - N/A   Overcast